Location: Franzen
(48.6167°N, 15.3833°E)
Time: 13:59:25
(UTC+00:00)

Cosmos 1833 Rocket - Pass Details

Date: 22 April 2021
Orbit: 831 x 841 km, 71.0° (Epoch: 16 May)

Event Time Altitude Azimuth Distance (km) Brightness Sun altitude
Rises 22:46:16 0° 335° (NNW) 3,406 6.9 -28.8°
Reaches altitude 10° 22:48:57 10° 345° (NNW) 2,469 6.0 -28.8°
Maximum altitude 22:54:06 34° 50° (NE) 1,354 4.0 -28.9°
Enters shadow 22:56:01 27° 87° (E) 1,558 4.0 -28.9°
